Flag for U.S.A. Weather past 2 weeks in Mason, Ohio, U.S.A.

42 °F

Rain. Fog.

Feels Like: 38 °F
Forecast: 39 / 47 °F
Wind: 7 mph from Northeast

Location: Butler County Regional Airport

Current Time: Nov 28, 2015 at 9:37:11 PM

Latest Report: Nov 28, 2015 at 8:53 PM

Visibility: 5 mi

Pressure: 30.27 "Hg

Humidity: 96%

Dew point: 41 °F

Location of MasonLocation

Historic Weather in Mason — Graph


Mason temperature yesterday

Maximum temperature yesterday: 63 °F (at 1:53 PM)
Minimum temperature yesterday: 53 °F (at 7:53 AM)
Average temperature yesterday: 58 °F

Past Weeks' High & Low Weather Summary

High67 °F (Nov 15, 2:53 PM)100% (Nov 18, 2:53 PM)30.57 "Hg (Nov 18, 2:53 PM)
Low18 °F (Nov 22, 11:53 PM)24% (Nov 20, 2:53 PM)29.70 "Hg (Nov 18, 4:53 PM)
Average45 °F67%30.24 "Hg
* Reported Nov 13 8:53 PM — Nov 28 8:00 PM, Mason, Weather by CustomWeather, © 2015

Note: Actual official high and low records may vary slightly from our data, if they occured in-between our weather recording intervals... More about our weather records


Mason weather history for previous 24 hours

Time TempWeatherWind HumidityBarometerVisibility
8:00 PM
Sat, Nov 28
42 °FLight rain. Fog.6 mph96%30.26 "Hg3 mi
6:53 PM43 °FMostly cloudy.8 mph93%30.26 "Hg10 mi
5:53 PM43 °FRain. Mostly cloudy.9 mph93%30.25 "Hg7 mi
5:01 PM44 °FRain. Fog.7 mph93%30.24 "Hg2 mi
4:53 PM44 °FRain. Fog.6 mph93%30.25 "Hg2 mi
3:53 PM44 °FFog.8 mph96%30.22 "Hg6 mi
3:02 PM44 °FLight rain. Fog.8 mph96%30.21 "Hg2 mi
1:53 PM45 °FLight rain. Fog.6 mph93%30.23 "Hg2 mi
12:53 PM45 °FLight rain. Low clouds.6 mph93%30.25 "Hg7 mi
11:53 AM44 °FLight rain. Fog.8 mph96%30.26 "Hg5 mi
11:00 AM44 °FLight rain. Fog.9 mph96%30.27 "Hg3 mi
9:53 AM44 °FLight rain. Fog.8 mph96%30.27 "Hg2 mi
8:53 AM44 °FLight rain. Fog.6 mph96%30.26 "Hg1 mi
7:53 AM44 °FLight rain. Low clouds.6 mph96%30.25 "Hg10 mi
6:53 AM45 °FLight rain. Low clouds.8 mph97%30.25 "Hg7 mi
6:04 AM46 °FLight rain. Fog.9 mph96%30.24 "Hg3 mi
5:53 AM47 °FLight rain. Fog.7 mph97%30.24 "Hg3 mi
4:53 AM57 °FRain. Fog.No wind96%30.21 "Hg2 mi
4:04 AM57 °FHeavy rain. Fog.No wind96%30.21 "Hg2 mi
3:53 AM57 °FRain. Fog.3 mph96%30.21 "Hg2 mi
2:55 AM57 °FLight rain. Fog.No wind96%30.22 "Hg3 mi
1:53 AM57 °FLight rain. Fog.5 mph96%30.22 "Hg3 mi
1:00 AM57 °FLight rain. Fog.No wind96%30.24 "Hg3 mi
11:53 PM
Fri, Nov 27
57 °FLight rain. Fog.No wind96%30.26 "Hg4 mi
10:53 PM56 °FLight rain. Fog.No wind97%30.26 "Hg6 mi
9:53 PM56 °FLight rain. Overcast.No wind97%30.27 "Hg7 mi
Weather by CustomWeather, © 2015

See weather overviewHow to use our weather pages